• In France
  • List of Countries
  • For 7 days
  • Water Temperature
  • Satellite Maps
  • Weather Map
  • Weather Widgets
  • user-avatar
    Login

    Hourly Weather Krasnye Lipyagi

    Today, 19 July, Thursday

    Time Temperature Precipitation Wind Pressure Humidity
    00:00 +19°C° 0.1 mm 4 mps 737 mmHg 96%
    01:00 +19°C° 0.2 mm 4 mps 737 mmHg 96%
    02:00 +19°C° 0.2 mm 4 mps 737 mmHg 96%
    03:00 +20°C° 0 mm 3 mps 737 mmHg 97%
    04:00 +20°C° 1.6 mm 4 mps 737 mmHg 97%
    05:00 +20°C° 1.6 mm 4 mps 737 mmHg 97%
    06:00 +20°C° 1.6 mm 4 mps 737 mmHg 96%
    07:00 +20°C° 0.5 mm 4 mps 737 mmHg 95%
    08:00 +20°C° 0.5 mm 4 mps 738 mmHg 95%
    09:00 +21°C° 0.5 mm 4 mps 738 mmHg 94%
    10:00 +21°C° 0.2 mm 4 mps 738 mmHg 91%
    11:00 +22°C° 0.2 mm 4 mps 738 mmHg 88%
    12:00 +23°C° 0.2 mm 4 mps 738 mmHg 86%
    13:00 +25°C° 1 mm 5 mps 738 mmHg 83%
    14:00 +25°C° 1 mm 5 mps 738 mmHg 80%
    15:00 +26°C° 1 mm 5 mps 738 mmHg 77%
    16:00 +26°C° 1 mm 5 mps 738 mmHg 80%
    17:00 +25°C° 1 mm 4 mps 738 mmHg 82%
    18:00 +25°C° 1 mm 3 mps 738 mmHg 84%
    19:00 +24°C° 0.7 mm 3 mps 738 mmHg 87%
    20:00 +22°C° 0.7 mm 3 mps 738 mmHg 90%
    21:00 +21°C° 0.7 mm 3 mps 738 mmHg 93%
    22:00 +21°C° 0.1 mm 3 mps 739 mmHg 93%
    23:00 +21°C° 0.1 mm 3 mps 739 mmHg 94%

    Tomorrow, 20 July, Friday

    Time Temperature Precipitation Wind Pressure Humidity
    00:00 +20°C° 0.1 mm 3 mps 739 mmHg 94%
    01:00 +20°C° 0 mm 3 mps 739 mmHg 94%
    02:00 +20°C° 0 mm 3 mps 739 mmHg 95%
    03:00 +20°C° 0 mm 3 mps 739 mmHg 95%
    04:00 +20°C° 0 mm 3 mps 739 mmHg 94%
    05:00 +20°C° 0 mm 3 mps 739 mmHg 93%
    06:00 +20°C° 0 mm 3 mps 740 mmHg 92%
    07:00 +22°C° 0 mm 4 mps 740 mmHg 87%
    08:00 +23°C° 0 mm 4 mps 740 mmHg 83%
    09:00 +25°C° 0 mm 4 mps 740 mmHg 78%
    10:00 +26°C° 0.3 mm 4 mps 740 mmHg 73%
    11:00 +28°C° 0.3 mm 4 mps 740 mmHg 69%
    12:00 +29°C° 0.3 mm 4 mps 740 mmHg 64%
    13:00 +29°C° 0.2 mm 4 mps 740 mmHg 63%
    14:00 +29°C° 0.2 mm 4 mps 740 mmHg 61%
    15:00 +30°C° 0.2 mm 4 mps 740 mmHg 60%
    16:00 +29°C° 0.4 mm 4 mps 740 mmHg 64%
    17:00 +29°C° 0.4 mm 4 mps 740 mmHg 69%
    18:00 +28°C° 0.4 mm 3 mps 740 mmHg 73%
    19:00 +27°C° 0 mm 3 mps 740 mmHg 79%
    20:00 +25°C° 0 mm 3 mps 741 mmHg 84%
    21:00 +24°C° 0 mm 3 mps 741 mmHg 89%
    22:00 +22°C° 0 mm 3 mps 741 mmHg 91%
    23:00 +21°C° 0 mm 3 mps 741 mmHg 93%

    Day after tomorrow, 21 July, Saturday

    Time Temperature Precipitation Wind Pressure Humidity
    00:00 +21°C° 0 mm 3 mps 741 mmHg 95%
    01:00 +20°C° 0 mm 3 mps 741 mmHg 95%
    02:00 +20°C° 0 mm 2 mps 741 mmHg 95%
    03:00 +20°C° 0 mm 2 mps 741 mmHg 96%
    04:00 +20°C° 0 mm 3 mps 741 mmHg 94%
    05:00 +20°C° 0 mm 3 mps 741 mmHg 93%
    06:00 +21°C° 0 mm 3 mps 741 mmHg 92%
    07:00 +22°C° 0 mm 3 mps 742 mmHg 86%
    08:00 +25°C° 0 mm 3 mps 742 mmHg 80%
    09:00 +26°C° 0 mm 3 mps 742 mmHg 75%
    10:00 +27°C° 0.2 mm 3 mps 742 mmHg 71%
    11:00 +28°C° 0.2 mm 3 mps 742 mmHg 67%
    12:00 +29°C° 0.2 mm 3 mps 742 mmHg 63%
    13:00 +29°C° 0.4 mm 3 mps 742 mmHg 62%
    14:00 +29°C° 0.4 mm 3 mps 742 mmHg 61%
    15:00 +30°C° 0.4 mm 3 mps 742 mmHg 60%
    16:00 +29°C° 0.5 mm 3 mps 742 mmHg 65%
    17:00 +29°C° 0.5 mm 3 mps 741 mmHg 69%
    18:00 +28°C° 0.5 mm 3 mps 741 mmHg 74%
    19:00 +27°C° 0 mm 2 mps 741 mmHg 79%
    20:00 +25°C° 0 mm 2 mps 741 mmHg 83%
    21:00 +24°C° 0 mm 2 mps 742 mmHg 88%
    22:00 +23°C° 0 mm 2 mps 741 mmHg 89%
    23:00 +23°C° 0 mm 2 mps 741 mmHg 91%

    22 July, Sunday

    Time Temperature Precipitation Wind Pressure Humidity
    00:00 +21°C° 0 mm 2 mps 741 mmHg 92%
    01:00 +21°C° 0.1 mm 2 mps 741 mmHg 93%
    02:00 +20°C° 0.1 mm 2 mps 741 mmHg 93%
    03:00 +20°C° 0.1 mm 2 mps 741 mmHg 94%
    04:00 +20°C° 0.2 mm 2 mps 741 mmHg 93%
    05:00 +21°C° 0.2 mm 2 mps 741 mmHg 93%
    06:00 +21°C° 0.2 mm 2 mps 741 mmHg 92%
    07:00 +24°C° 0.1 mm 2 mps 741 mmHg 87%
    08:00 +25°C° 0.1 mm 2 mps 741 mmHg 81%
    09:00 +26°C° 0.1 mm 2 mps 741 mmHg 76%
    10:00 +27°C° 0.6 mm 3 mps 741 mmHg 72%
    11:00 +28°C° 0.6 mm 3 mps 741 mmHg 68%
    12:00 +29°C° 0.6 mm 3 mps 741 mmHg 65%
    13:00 +29°C° 0.5 mm 3 mps 741 mmHg 65%
    14:00 +29°C° 0.5 mm 3 mps 741 mmHg 65%
    15:00 +30°C° 0.5 mm 4 mps 741 mmHg 65%
    16:00 +29°C° 0.2 mm 3 mps 741 mmHg 68%
    17:00 +29°C° 0.2 mm 3 mps 741 mmHg 71%
    18:00 +28°C° 0.2 mm 3 mps 741 mmHg 74%
    19:00 +27°C° 0.1 mm 3 mps 741 mmHg 79%
    20:00 +25°C° 0.1 mm 3 mps 741 mmHg 84%
    21:00 +24°C° 0.1 mm 3 mps 741 mmHg 89%
    22:00 +22°C° 0.1 mm 3 mps 741 mmHg 91%
    23:00 +22°C° 0.1 mm 3 mps 741 mmHg 92%

    23 July, Monday

    Time Temperature Precipitation Wind Pressure Humidity
    00:00 +21°C° 0.1 mm 3 mps 741 mmHg 94%
    01:00 +21°C° 0.3 mm 3 mps 741 mmHg 94%
    02:00 +21°C° 0.3 mm 3 mps 741 mmHg 95%
    03:00 +21°C° 0.3 mm 3 mps 741 mmHg 96%
    04:00 +21°C° 0.4 mm 3 mps 741 mmHg 96%
    05:00 +21°C° 0.4 mm 3 mps 741 mmHg 95%
    06:00 +21°C° 0.4 mm 4 mps 741 mmHg 95%
    07:00 +22°C° 0.5 mm 4 mps 741 mmHg 92%
    08:00 +23°C° 0.5 mm 4 mps 741 mmHg 89%
    09:00 +25°C° 0.5 mm 4 mps 741 mmHg 85%
    10:00 +26°C° 1.5 mm 4 mps 741 mmHg 82%
    11:00 +27°C° 1.5 mm 4 mps 741 mmHg 78%
    12:00 +28°C° 1.5 mm 4 mps 741 mmHg 74%
    13:00 +28°C° 1.5 mm 4 mps 741 mmHg 75%
    14:00 +28°C° 1.5 mm 4 mps 741 mmHg 76%
    15:00 +27°C° 1.5 mm 4 mps 741 mmHg 78%
    16:00 +27°C° 0.8 mm 4 mps 741 mmHg 81%
    17:00 +26°C° 0.8 mm 4 mps 741 mmHg 85%
    18:00 +25°C° 0.8 mm 3 mps 741 mmHg 88%
    19:00 +24°C° 0.2 mm 3 mps 742 mmHg 89%
    20:00 +24°C° 0.2 mm 3 mps 742 mmHg 91%
    21:00 +22°C° 0.2 mm 3 mps 742 mmHg 92%
    22:00 +22°C° 0.1 mm 3 mps 742 mmHg 94%
    23:00 +21°C° 0.1 mm 3 mps 742 mmHg 95%

    24 July, Tuesday

    Time Temperature Precipitation Wind Pressure Humidity
    00:00 +21°C° 0.1 mm 3 mps 742 mmHg 96%
    01:00 +20°C° 0 mm 3 mps 742 mmHg 96%
    02:00 +20°C° 0 mm 3 mps 742 mmHg 97%
    03:00 +20°C° 0 mm 3 mps 743 mmHg 97%
    04:00 +20°C° 0 mm 3 mps 743 mmHg 96%
    05:00 +20°C° 0 mm 3 mps 743 mmHg 96%
    06:00 +20°C° 0 mm 3 mps 743 mmHg 95%
    07:00 +21°C° 0.2 mm 3 mps 743 mmHg 92%
    08:00 +22°C° 0.2 mm 3 mps 744 mmHg 90%
    09:00 +25°C° 0.2 mm 3 mps 744 mmHg 87%
    10:00 +26°C° 0.4 mm 3 mps 744 mmHg 81%
    11:00 +27°C° 0.4 mm 3 mps 744 mmHg 76%
    12:00 +28°C° 0.4 mm 3 mps 744 mmHg 71%
    13:00 +28°C° 0.7 mm 4 mps 744 mmHg 71%
    14:00 +28°C° 0.7 mm 4 mps 744 mmHg 71%
    15:00 +29°C° 0.7 mm 4 mps 744 mmHg 70%
    16:00 +28°C° 0.5 mm 4 mps 745 mmHg 74%
    17:00 +28°C° 0.5 mm 4 mps 745 mmHg 77%
    18:00 +27°C° 0.5 mm 3 mps 745 mmHg 80%
    19:00 +26°C° 0.1 mm 3 mps 745 mmHg 84%
    20:00 +25°C° 0.1 mm 3 mps 745 mmHg 87%
    21:00 +24°C° 0.1 mm 3 mps 745 mmHg 91%
    22:00 +22°C° 0 mm 3 mps 746 mmHg 92%
    23:00 +22°C° 0 mm 3 mps 746 mmHg 93%
    Show more